Regional Weather Roundup
Issued by NWS

Home | Current Version | Previous Version | Graphics & Text | Print | Product List | Glossary On
Versions: 1 2 3 4 5 6 7 8 9 10 11 12 13 14 15 16 17 18 19 20 21 22 23 24 25 26 27 28 29 30 31 32 33 34 35 36 37 38 39 40 41 42 43 44 45 46 47 48 49 50
747
ASUS43 KMPX 260110
RWRMN
WEATHER ROUNDUP FOR MINNESOTA
NATIONAL WEATHER SERVICE TWIN CITIES/CHANHASSEN MN
800 PM CDT FRI MAY 25 2018


NOTE: "FAIR" INDICATES FEW OR NO CLOUDS BELOW 12,000 FEET WITH NO
SIGNIFICANT WEATHER AND/OR OBSTRUCTIONS TO VISIBILITY. N/A MEANS
CURRENT SKY AND/OR WEATHER CONDITIONS ARE NOT AVAILABLE.

MNZ060>063-068>070-260200-
   Twin Cities Metro

CITY           SKY/WX    TMP DP  RH WIND       PRES   REMARKS
TWIN CITIES    FAIR      80  58  46 SW13G23   29.67R
ST PAUL        FAIR      81  57  43 SW7       29.66S
CRYSTAL        FAIR      79  57  46 W13       29.65S
BLAINE         PTCLDY    81  63  54 SW7       29.66F
LAKEVILLE      FAIR      73  57  56 CALM      29.68F
EDEN PRAIRIE   FAIR      74  60  61 SW3       29.66S
SOUTH ST PAUL  FAIR      80  56  44 W13G18    29.68R
LAKE ELMO      FAIR      73  66  78 SE5       29.69R
$$
MNZ001>005-007-008-013>017-022>024-027-028-260200-
   Northwest Minnesota

CITY           SKY/WX    TMP DP  RH WIND       PRES   REMARKS
BEMIDJI        FAIR      79  51  37 W6        29.62S
HALLOCK        FAIR      90  41  18 W17       29.51S
ROSEAU         FAIR      73  61  64 S8        29.54F THUNDER
WARROAD        FAIR      75  61  60 S6        29.56S THUNDER
THIEF RVR FALL FAIR      77  61  57 S9        29.58F
CROOKSTON      FAIR      82  57  42 S3        29.56F
FOSSTON        FAIR      82  50  32 S8        29.61F
DETROIT LAKES  FAIR      81  50  34 CALM      29.66S
MOORHEAD       FAIR      84  55  37 E3        29.61S
PARK RAPIDS    FAIR      81  57  43 SW6       29.63S
MAHNOMEN       FAIR      79  55  44 SE6       29.61F
$$
MNZ006-009>011-018-025>026-260200-
   North Central Minnesota

CITY           SKY/WX    TMP DP  RH WIND       PRES   REMARKS
BAUDETTE       FAIR      79  58  48 SW7       29.56S
FLAG ISLAND    FAIR      72  57  60 SE7       29.52F
INTL FALLS     FAIR      81  58  45 CALM      29.58S
WASKISH        FAIR      75  61  60 CALM      29.59S
BIG FORK       FAIR      82  52  34 CALM      29.62R
LONGVILLE      FAIR      77  57  50 CALM      29.63S
GRAND RAPIDS   FAIR      81  57  43 W3        29.65R
ORR            FAIR      79  54  41 CALM      29.59R
COOK           FAIR      79  54  41 W3        29.62S
WALKER         FAIR      80  51  36 SW5       29.62F
$$
MNZ012-019>021-037-260200-
   Northeast Minnesota

CITY           SKY/WX    TMP DP  RH WIND       PRES   REMARKS
DULUTH         FAIR      81  60  48 SW7       29.64R
ELY            FAIR      81  54  39 W5        29.62S
HIBBING        FAIR      80  52  37 W5        29.62S
EVELETH          N/A    N/A N/A N/A MISG        N/A
DULUTH HARBOR  FAIR      79  63  57 SW5       29.61R
TWO HARBORS    FAIR      79  61  53 SW5       29.60R
SILVER BAY     FAIR      81  57  44 CALM      29.60R
GRAND MARAIS     N/A     52  47  83 CALM      29.60R
G MARAIS ARPRT FAIR      73  55  53 CALM      29.65S
$$
MNZ029>031-032-039>041-046>048-054>057-064-260200-
   West Central Minnesota

CITY           SKY/WX    TMP DP  RH WIND       PRES   REMARKS
FERGUS FALLS   FAIR      86  48  26 W10       29.57S
MORRIS         CLEAR     88  52  29 NW9       29.64S
ALEXANDRIA     FAIR      87  59  38 CALM      29.67S
ELBOW LAKE     FAIR      87  51  29 NW6       29.64S
WADENA         FAIR      82  57  42 CALM      29.64S
GLENWOOD       FAIR      81  66  61 S6        29.66F
APPLETON       CLEAR     90  46  22 W9        29.65R
BENSON         CLEAR     84  54  34 W10       29.66S
ORTONVILLE     CLEAR     88  54  31 W5        29.66S
MADISON        CLEAR     86  57  37 SW7       29.67S
WILLMAR        FAIR      82  54  36 SW3       29.69S
$$
MNZ033>034-036-042>043-049>051-058-059-260200-
   Central Minnesota

CITY           SKY/WX    TMP DP  RH WIND       PRES   REMARKS
ST CLOUD       FAIR      84  57  39 S10       29.65S
SAUK CENTRE    FAIR      83  60  45 CALM      29.66S
PAYNESVILLE    FAIR      82  66  58 S7        29.67S
AITKIN         FAIR      81  55  41 SW3       29.62S
PINE RIVER     FAIR      82  54  36 CALM      29.67S
BRAINERD       FAIR      86  52  30 W5        29.64S
STAPLES        FAIR      82  48  30 W3        29.64S
LONG PRAIRIE   FAIR      82  59  44 S3        29.66S
LITTLE FALLS   FAIR      82  55  39 CALM      29.65S
LITCHFIELD     FAIR      79  63  57 CALM      29.68R
BUFFALO        FAIR      77  60  55 S5        29.67F
MAPLE LAKE     FAIR      78  65  63 CALM      29.67S
HUTCHINSON     FAIR      76  61  60 CALM      29.69S
$$
MNZ037-044-045-052-053-260200-
   East Central Minnesota

CITY           SKY/WX    TMP DP  RH WIND       PRES   REMARKS
PRINCETON      FAIR      82  55  39 S3        29.66S
MORA           FAIR      81  55  41 CALM      29.66S
CAMBRIDGE      FAIR      82  63  51 SW5       29.65F
RUSH CITY      FAIR      80  59  48 SW3       29.65S
MOOSE LAKE     FAIR      81  57  44 CALM      29.62R
HINCKLEY       FAIR      82  61  47 W3        29.64S
CLOQUET        FAIR      81  61  50 CALM      29.64S
MCGREGOR       FAIR      82  52  34 CALM      29.64S
$$
MNZ071>073-080-081-089-090-097-098-260200-
   Southwest Minnesota

CITY           SKY/WX    TMP DP  RH WIND       PRES   REMARKS
MONTEVIDEO     CLEAR     84  54  34 SW3       29.67R
CANBY          CLEAR     83  65  53 SW3       29.70R
MARSHALL       CLEAR     78  68  71 SE5       29.70R
REDWOOD FALLS  CLOUDY    78  64  61 S6        29.68R
OLIVIA         CLEAR     77  61  57 SW7       29.68R
PIPESTONE      PTCLDY    75  63  64 SE6       29.74S
WINDOM         CLOUDY    73  54  49 S6        29.74S
WORTHINGTON    CLOUDY    69  61  75 SW3       29.76F
JACKSON        LGT RAIN  72  55  56 SW20G28   29.77R
TRACY          PTCLDY    79  60  52 S10       29.72R
SLAYTON        HVY RAIN  77  57  50 S8        29.75F
$$
MNZ065>067-074>077-082>085-091>093-260200-
   South Central Minnesota

CITY           SKY/WX    TMP DP  RH WIND       PRES   REMARKS
MANKATO        FAIR      71  62  73 E6        29.71F
NEW ULM        MOCLDY    75  55  50 S5        29.69S
ST JAMES       CLOUDY    77  59  53 CALM      29.72F
FAIRMONT       CLOUDY    75  58  55 SW3       29.74F
GLENCOE        FAIR      76  58  52 CALM      29.67S
FARIBAULT      LGT RAIN  64  64 100 CALM      29.72R
WASECA         LGT RAIN  72  63  73 N12       29.74F
ALBERT LEA     CLOUDY    63  61  94 N9G23     29.76R
$$
MNZ078>079-086>088-094>096-260200-
   Southeast Minnesota

CITY           SKY/WX    TMP DP  RH WIND       PRES   REMARKS
ROCHESTER      FAIR      72  64  76 SE10      29.73S
RED WING       FAIR      77  61  57 SE10      29.69R
STANTON        MOCLDY    75  60  58 W8G20     29.70R
DODGE CENTER   FAIR      77  63  61 W8        29.76R
WINONA         FAIR      73  63  68 CALM      29.72R
AUSTIN         FAIR      75  66  73 CALM      29.72R
PRESTON        FAIR      71  64  77 SE7       29.75S
$$
ABBREVIATIONS USED IN REMARKS
   TC - TEMPERATURES IN CELSIUS
  WCI - WIND CHILL INDEX
   HX - HEAT INDEX
  VSB - VISIBILITY
$$




USA.gov is the U.S. government's official web portal to all federal, state and local government web resources and services.